Weather History for West Palm Beach, FL

Change the Weather History Date:

Friday, February 14, 2014

  Actual Average Record
Temperature  
Mean Temperature 57 °F 68 °F  
Max Temperature 69 °F 77 °F 89 °F (1948)
Min Temperature 44 °F 59 °F 28 °F (1899)
Degree Days  
Heating Degree Days 8 2  
Month to date heating degree days 11 28  
Since 1 July heating degree days 113 185  
Cooling Degree Days 0 5  
Month to date cooling degree days 120 58  
Year to date cooling degree days 242 166  
Growing Degree Days 6 (Base 50)    
Moisture  
Dew Point 45 °F    
Average Humidity 63    
Maximum Humidity 89    
Minimum Humidity 37    
Precipitation  
Precipitation 0.00 in 0.10 in 2.31 in (1895)
Month to date precipitation 0.77 1.34  
Year to date precipitation 11.19 4.47  
Snow  
Snow 0.00 in - - ()
Month to date snowfall 0.0  
Since 1 July snowfall 0.0  
Snow Depth 0.00 in    
Sea Level Pressure  
Sea Level Pressure 30.00 in    
Wind  
Wind Speed 7 mph (West)    
Max Wind Speed 17 mph    
Max Gust Speed 20 mph    
Visibility 10 miles    
Events      
T = Trace of Precipitation, MM = Missing Value Source: NWS Daily Summary

Daily Weather History Graph

Daily Weather History Graph

Search for Another Location

Airport:

Trip Planner

Search our weather history database for the weather conditions in past years. The results will help you decide how hot, cold, wet, or windy it might be!

Date:

Astronomy

Feb. 14, 2014 Rise Set
Actual Time 6:57 AM EST 6:12 PM EST
Civil Twilight 6:33 AM EST 6:35 PM EST
Nautical Twilight 6:06 AM EST 7:03 PM EST
Astronomical Twilight 5:39 AM EST 7:30 PM EST
Moon 6:09 PM EST (2/14) 6:26 AM EST (2/14)
Length of Visible Light 12h 02m
Length of Day
11h 14m
Full, 100% of the Moon is Illuminated
Feb 14
Full
Feb 14
Full
Feb 22
Last Quarter
Mar 1
New
Mar 8
First Quarter

Hourly Weather History & Observations

Time (EST) Temp. Windchill Dew Point Humidity Pressure Visibility Wind Dir Wind Speed Gust Speed Precip Events Conditions
12:53 AM 52.0 °F - 46.0 °F 80% 29.97 in 10.0 mi West 6.9 mph - N/A   Clear
1:53 AM 50.0 °F - 46.0 °F 86% 29.97 in 10.0 mi WNW 6.9 mph - N/A   Clear
2:53 AM 51.1 °F - 46.0 °F 83% 29.96 in 10.0 mi NNW 11.5 mph - N/A   Clear
3:53 AM 48.0 °F - 41.0 °F 77% 29.97 in 10.0 mi NNW 15.0 mph - N/A   Clear
4:53 AM 46.9 °F - 41.0 °F 80% 29.99 in 10.0 mi NW 10.4 mph - N/A   Clear
5:53 AM 45.0 °F 41.2 °F 41.0 °F 86% 30.01 in 10.0 mi NW 6.9 mph - N/A   Clear
6:53 AM 45.0 °F 41.2 °F 41.0 °F 86% 30.03 in 10.0 mi NW 6.9 mph - N/A   Partly Cloudy
7:53 AM 48.0 °F - 42.1 °F 80% 30.04 in 10.0 mi West 4.6 mph - N/A   Partly Cloudy
8:53 AM 52.0 °F - 43.0 °F 71% 30.07 in 10.0 mi West 5.8 mph - N/A   Partly Cloudy
9:53 AM 57.0 °F - 45.0 °F 64% 30.08 in 10.0 mi Variable 4.6 mph - N/A   Partly Cloudy
10:53 AM 61.0 °F - 48.0 °F 62% 30.08 in 10.0 mi WNW 3.5 mph - N/A   Partly Cloudy
11:53 AM 64.4 °F - 48.2 °F 56% 30.06 in 10.0 mi ESE 4.6 mph - N/A   Partly Cloudy
12:53 PM 66.2 °F - 48.2 °F 52% 30.03 in 10.0 mi ENE 3.5 mph - N/A   Partly Cloudy
1:53 PM 66.2 °F - 50.0 °F 56% 30.00 in 10.0 mi Variable 3.5 mph - N/A   Partly Cloudy
2:53 PM 66.2 °F - 48.2 °F 52% 29.98 in 10.0 mi Variable 6.9 mph - N/A   Partly Cloudy
3:53 PM 68.0 °F - 46.0 °F 45% 29.97 in 10.0 mi ESE 10.4 mph - N/A   Partly Cloudy
4:53 PM 66.9 °F - 45.0 °F 45% 29.96 in 10.0 mi SE 12.7 mph - N/A   Partly Cloudy
5:53 PM 66.0 °F - 39.9 °F 38% 29.97 in 10.0 mi SSE 6.9 mph - N/A   Partly Cloudy
6:53 PM 63.0 °F - 42.1 °F 46% 29.97 in 10.0 mi South 5.8 mph - N/A   Clear
7:53 PM 62.1 °F - 45.0 °F 53% 29.98 in 10.0 mi South 8.1 mph - N/A   Clear
8:53 PM 59.0 °F - 45.0 °F 60% 30.00 in 10.0 mi West 4.6 mph - N/A   Clear
9:53 PM 60.1 °F - 46.0 °F 60% 30.00 in 10.0 mi Calm Calm - N/A   Clear
10:53 PM 55.0 °F - 46.9 °F 74% 30.01 in 10.0 mi SW 8.1 mph - N/A   Clear
11:53 PM 55.0 °F - 48.0 °F 77% 30.00 in 10.0 mi WSW 5.8 mph - N/A   Clear